Year,Month,Day,Hour,Minute,Value (Times are PST for temperature in C)
2020,01,29,10,38,7.40
2020,01,29,10,39,7.40
2020,01,29,10,40,7.40
2020,01,29,10,41,7.50
2020,01,29,10,42,7.50
2020,01,29,10,43,7.50
2020,01,29,10,44,7.50
2020,01,29,10,45,7.50
2020,01,29,10,46,7.50
2020,01,29,10,47,7.50
2020,01,29,10,48,7.50
2020,01,29,10,49,7.50
2020,01,29,10,50,7.60
2020,01,29,10,51,7.60
2020,01,29,10,52,7.60
2020,01,29,10,53,7.60
2020,01,29,10,54,7.60
2020,01,29,10,55,7.60
2020,01,29,10,56,7.60
2020,01,29,10,57,7.60
2020,01,29,10,58,7.60
2020,01,29,10,59,7.60
2020,01,29,11,00,7.60
2020,01,29,11,01,7.60
2020,01,29,11,02,7.60
2020,01,29,11,03,7.60
2020,01,29,11,04,7.60
2020,01,29,11,05,7.60
2020,01,29,11,06,7.60
2020,01,29,11,07,7.70
2020,01,29,11,08,7.70
2020,01,29,11,09,7.70
2020,01,29,11,10,7.70
2020,01,29,11,11,7.70
2020,01,29,11,12,7.70
2020,01,29,11,13,7.70
2020,01,29,11,14,7.70
2020,01,29,11,15,7.70
2020,01,29,11,16,7.70
2020,01,29,11,17,7.70
2020,01,29,11,18,7.70
2020,01,29,11,19,7.70
2020,01,29,11,20,7.70
2020,01,29,11,21,7.70
2020,01,29,11,22,7.70
2020,01,29,11,23,7.70
2020,01,29,11,24,7.70
2020,01,29,11,25,7.70
2020,01,29,11,26,7.70
2020,01,29,11,27,7.70
2020,01,29,11,28,7.70
2020,01,29,11,29,7.60
2020,01,29,11,30,7.60
2020,01,29,11,31,7.60
2020,01,29,11,32,7.60
2020,01,29,11,33,7.60
2020,01,29,11,34,7.60
2020,01,29,11,35,7.70
2020,01,29,11,36,7.70
2020,01,29,11,37,7.70
2020,01,29,11,38,7.70
2020,01,29,11,39,7.70
2020,01,29,11,40,7.80
2020,01,29,11,41,7.80
2020,01,29,11,42,7.80
2020,01,29,11,43,7.90
2020,01,29,11,44,7.90
2020,01,29,11,45,8.00
2020,01,29,11,46,8.10
2020,01,29,11,47,8.20
2020,01,29,11,48,8.30
2020,01,29,11,49,8.40
2020,01,29,11,50,8.50
2020,01,29,11,51,8.60
2020,01,29,11,52,8.70
2020,01,29,11,53,8.80
2020,01,29,11,54,8.80
2020,01,29,11,55,8.90
2020,01,29,11,56,9.00
2020,01,29,11,57,9.10
2020,01,29,11,58,9.10
2020,01,29,11,59,9.20
2020,01,29,12,00,9.20
2020,01,29,12,01,9.30
2020,01,29,12,02,9.30
2020,01,29,12,03,9.40
2020,01,29,12,04,9.50
2020,01,29,12,05,9.60
2020,01,29,12,06,9.70
2020,01,29,12,07,9.70
2020,01,29,12,08,9.70
2020,01,29,12,09,9.60
2020,01,29,12,10,9.60
2020,01,29,12,11,9.50
2020,01,29,12,12,9.50
2020,01,29,12,13,9.40
2020,01,29,12,14,9.40
2020,01,29,12,15,9.30
2020,01,29,12,16,9.30
2020,01,29,12,17,9.30
2020,01,29,12,18,9.20
2020,01,29,12,19,9.20
2020,01,29,12,20,9.20
2020,01,29,12,21,9.30
2020,01,29,12,22,9.30
2020,01,29,12,23,9.30
2020,01,29,12,24,9.30
2020,01,29,12,25,9.30
2020,01,29,12,26,9.30
2020,01,29,12,27,9.30
2020,01,29,12,28,9.30
2020,01,29,12,29,9.30
2020,01,29,12,30,9.30
2020,01,29,12,31,9.30
2020,01,29,12,32,9.40
2020,01,29,12,33,9.50
2020,01,29,12,34,9.50
2020,01,29,12,35,9.50
2020,01,29,12,36,9.50
2020,01,29,12,37,9.50
2020,01,29,12,38,9.60
2020,01,29,12,39,9.60
2020,01,29,12,40,9.70
2020,01,29,12,41,9.70
2020,01,29,12,42,9.70
2020,01,29,12,43,9.70
2020,01,29,12,44,9.70
2020,01,29,12,45,9.80
2020,01,29,12,46,9.80
2020,01,29,12,47,9.80
2020,01,29,12,48,9.90
2020,01,29,12,49,9.90
2020,01,29,12,50,9.90
2020,01,29,12,51,9.90
2020,01,29,12,52,9.90
2020,01,29,12,53,9.90
2020,01,29,12,54,9.90
2020,01,29,12,55,9.90
2020,01,29,12,56,9.90
2020,01,29,12,57,9.90
2020,01,29,12,58,9.90
2020,01,29,12,59,10.00
2020,01,29,13,00,10.00
2020,01,29,13,01,10.10
2020,01,29,13,02,10.00
2020,01,29,13,03,10.00
2020,01,29,13,04,10.00
2020,01,29,13,05,10.00
2020,01,29,13,06,9.90
2020,01,29,13,07,9.90
2020,01,29,13,08,9.90
2020,01,29,13,09,9.90
2020,01,29,13,10,10.00
2020,01,29,13,11,10.10
2020,01,29,13,12,10.10
2020,01,29,13,13,10.10
2020,01,29,13,14,10.10
2020,01,29,13,15,10.10
2020,01,29,13,16,10.10
2020,01,29,13,17,10.20
2020,01,29,13,18,10.20
2020,01,29,13,19,10.30
2020,01,29,13,20,10.30
2020,01,29,13,21,10.30
2020,01,29,13,22,10.30
2020,01,29,13,23,10.30
2020,01,29,13,24,10.30
2020,01,29,13,25,10.30
2020,01,29,13,26,10.40
2020,01,29,13,27,10.40
2020,01,29,13,28,10.40
2020,01,29,13,29,10.40
2020,01,29,13,30,10.40
2020,01,29,13,31,10.40
2020,01,29,13,32,10.30
2020,01,29,13,33,10.40
2020,01,29,13,34,10.40
2020,01,29,13,35,10.40
2020,01,29,13,36,10.40
2020,01,29,13,37,10.40
2020,01,29,13,38,10.50
2020,01,29,13,39,10.50
2020,01,29,13,40,10.40
2020,01,29,13,41,10.30
2020,01,29,13,42,10.20
2020,01,29,13,43,10.20
2020,01,29,13,44,10.10
2020,01,29,13,45,10.10
2020,01,29,13,46,10.10
2020,01,29,13,47,10.00
2020,01,29,13,48,10.00
2020,01,29,13,49,10.00
2020,01,29,13,50,10.10
2020,01,29,13,51,10.10
2020,01,29,13,52,10.10
2020,01,29,13,53,10.20
2020,01,29,13,54,10.20
2020,01,29,13,55,10.20
2020,01,29,13,56,10.20
2020,01,29,13,57,10.10
2020,01,29,13,58,10.10
2020,01,29,13,59,10.10
2020,01,29,14,00,10.00
2020,01,29,14,01,10.00
2020,01,29,14,02,9.90
2020,01,29,14,03,9.90
2020,01,29,14,04,9.80
2020,01,29,14,05,9.80
2020,01,29,14,06,9.80
2020,01,29,14,07,9.80
2020,01,29,14,08,9.70
2020,01,29,14,09,9.70
2020,01,29,14,10,9.70
2020,01,29,14,11,9.70
2020,01,29,14,12,9.60
2020,01,29,14,13,9.50
2020,01,29,14,14,9.50
2020,01,29,14,15,9.40
2020,01,29,14,16,9.30
2020,01,29,14,17,9.30
2020,01,29,14,18,9.30
2020,01,29,14,19,9.30
2020,01,29,14,20,9.30
2020,01,29,14,21,9.30
2020,01,29,14,22,9.30
2020,01,29,14,23,9.40
2020,01,29,14,24,9.40
2020,01,29,14,25,9.40
2020,01,29,14,26,9.40
2020,01,29,14,27,9.50
2020,01,29,14,28,9.40
2020,01,29,14,29,9.40
2020,01,29,14,30,9.40
2020,01,29,14,31,9.40
2020,01,29,14,32,9.40
2020,01,29,14,33,9.40
2020,01,29,14,34,9.40
2020,01,29,14,35,9.40
2020,01,29,14,36,9.40
2020,01,29,14,37,9.40
2020,01,29,14,38,9.30
2020,01,29,14,39,9.30
2020,01,29,14,40,9.30
2020,01,29,14,41,9.30
2020,01,29,14,42,9.30
2020,01,29,14,43,9.30
2020,01,29,14,44,9.30
2020,01,29,14,45,9.20
2020,01,29,14,46,9.20
2020,01,29,14,47,9.20
2020,01,29,14,48,9.20
2020,01,29,14,49,9.20
2020,01,29,14,50,9.20
2020,01,29,14,51,9.20
2020,01,29,14,52,9.20
2020,01,29,14,53,9.20
2020,01,29,14,54,9.10
2020,01,29,14,55,9.10
2020,01,29,14,56,9.10
2020,01,29,14,57,9.10
2020,01,29,14,58,9.10
2020,01,29,14,59,9.10
2020,01,29,15,00,9.10
2020,01,29,15,01,9.10
2020,01,29,15,02,9.10
2020,01,29,15,03,9.10
2020,01,29,15,04,9.10
2020,01,29,15,05,9.10
2020,01,29,15,06,9.10
2020,01,29,15,07,9.00
2020,01,29,15,08,9.00
2020,01,29,15,09,9.00
2020,01,29,15,10,9.00
2020,01,29,15,11,8.90
2020,01,29,15,12,8.90
2020,01,29,15,13,8.90
2020,01,29,15,14,8.90
2020,01,29,15,15,8.90
2020,01,29,15,16,8.80
2020,01,29,15,17,8.80
2020,01,29,15,18,8.80
2020,01,29,15,19,8.80
2020,01,29,15,20,8.80
2020,01,29,15,21,8.80
2020,01,29,15,22,8.80
2020,01,29,15,23,8.80
2020,01,29,15,24,8.80
2020,01,29,15,25,8.80
2020,01,29,15,26,8.80
2020,01,29,15,27,8.80
2020,01,29,15,28,8.80
2020,01,29,15,29,8.70
2020,01,29,15,30,8.70
2020,01,29,15,31,8.70
2020,01,29,15,32,8.70
2020,01,29,15,33,8.70
2020,01,29,15,34,8.70
2020,01,29,15,35,8.70
2020,01,29,15,36,8.70
2020,01,29,15,37,8.70
2020,01,29,15,38,8.70
2020,01,29,15,39,8.70
2020,01,29,15,40,8.60
2020,01,29,15,41,8.60
2020,01,29,15,42,8.60
2020,01,29,15,43,8.60
2020,01,29,15,44,8.60
2020,01,29,15,45,8.60
2020,01,29,15,46,8.60
2020,01,29,15,47,8.50
2020,01,29,15,48,8.50
2020,01,29,15,49,8.50
2020,01,29,15,50,8.50
2020,01,29,15,51,8.50
2020,01,29,15,52,8.40
2020,01,29,15,53,8.40
2020,01,29,15,54,8.40
2020,01,29,15,55,8.40
2020,01,29,15,56,8.40
2020,01,29,15,57,8.40
2020,01,29,15,58,8.40
2020,01,29,15,59,8.40
2020,01,29,16,00,8.40
2020,01,29,16,01,8.40
2020,01,29,16,02,8.40
2020,01,29,16,03,8.40
2020,01,29,16,04,8.40
2020,01,29,16,05,8.40
2020,01,29,16,06,8.40
2020,01,29,16,07,8.40
2020,01,29,16,08,8.40
2020,01,29,16,09,8.40
2020,01,29,16,10,8.40
2020,01,29,16,11,8.40
2020,01,29,16,12,8.40
2020,01,29,16,13,8.40
2020,01,29,16,14,8.40
2020,01,29,16,15,8.40
2020,01,29,16,16,8.40
2020,01,29,16,17,8.40
2020,01,29,16,18,8.30
2020,01,29,16,19,8.30
2020,01,29,16,20,8.30
2020,01,29,16,21,8.30
2020,01,29,16,22,8.30
2020,01,29,16,23,8.30
2020,01,29,16,24,8.30
2020,01,29,16,25,8.30
2020,01,29,16,26,8.30
2020,01,29,16,27,8.20
2020,01,29,16,28,8.20
2020,01,29,16,29,8.20
2020,01,29,16,30,8.20
2020,01,29,16,31,8.20
2020,01,29,16,32,8.20
2020,01,29,16,33,8.20
2020,01,29,16,34,8.20
2020,01,29,16,35,8.20
2020,01,29,16,36,8.20
2020,01,29,16,37,8.20
